Location: Bazugues
(43.4465°N, 0.3432°E)
Time: 16:50:12
(UTC+00:00)

Cosmos 1241 Rocket - Visible Passes

Search period start: 11 April 2026 00:00
Search period end: 21 April 2026 00:00
Orbit: 941 x 1005 km, 65.8° (Epoch: 11 April)

Date Brightness Start Highest point End Pass type
(mag) Time Alt. Az. Time Alt. Az. Time Alt. Az.
11 Apr 5.6 19:36:11 10° NNW 19:41:36 30° NE 19:45:53 15° E visible
11 Apr 4.6 21:23:27 10° NW 21:29:39 63° WSW 21:30:29 57° SSW visible
12 Apr 4.9 20:00:42 10° NNW 20:06:45 48° NE 20:10:17 24° ESE visible
12 Apr 5.5 21:48:38 10° NW 21:54:10 34° WSW 21:54:53 33° SW visible
13 Apr 4.4 20:25:22 10° NNW 20:31:40 83° ENE 20:34:45 33° SE visible
13 Apr 6.4 22:14:34 10° WNW 22:18:30 17° WSW 22:19:21 17° WSW visible
14 Apr 5.4 19:02:52 10° NNW 19:08:28 33° NE 19:14:05 10° ESE visible
14 Apr 4.9 20:50:15 10° NW 20:56:22 55° WSW 20:59:15 31° S visible
15 Apr 4.8 19:27:25 10° NNW 19:33:34 54° NE 19:39:13 13° SE visible
15 Apr 5.9 21:15:32 10° NW 21:20:51 29° WSW 21:23:50 20° SSW visible
16 Apr 4.5 19:52:07 10° NNW 19:58:25 87° WSW 20:03:51 15° SSE visible
16 Apr 6.7 21:41:46 10° WNW 21:45:08 15° WSW 21:48:28 10° SW visible
17 Apr 5.2 20:17:04 10° NW 20:23:04 48° WSW 20:28:34 13° S visible
18 Apr 6.2 20:42:28 10° NW 20:47:32 26° WSW 20:52:37 10° SSW visible
19 Apr 4.7 19:18:52 10° NW 19:25:09 78° WSW 19:31:32 10° SSE visible
19 Apr 6.9 21:09:08 10° WNW 21:11:46 13° WSW 21:14:25 10° SW visible
20 Apr 5.6 19:43:54 10° NW 19:49:46 43° WSW 19:55:43 10° S visible
